カタログに戻る

DELTA 1 DEB

運用中PO
NORAD 21523·DEBRIS·🇺🇸 United States

打ち上げ Jun 12, 1975 から Vandenberg Space Force Base

Loading…

次のパス (今後24時間)

TLE

最新Source: Space-Track

元期: Sep 13, 2026, 10:57 UTC

1 21523U 75052GU  26256.45688549  .00000332  00000-0  19522-2 0  9991
2 21523  99.5643 258.4080 0714088 286.2337 240.9143 12.06113998517654

AllMySatでDELTA 1 DEBをリアルタイム追跡

Download on the App Store